EW9356 Weather Reports


time (UTC)temp
C
wind
direction
speed
KPH
gust
KPH
rain 1hr
cm
rain 24hr
cm
rain mn
cm
humidity
%
barometer
mb
20260505012015 10 197 17.7 22.5 0.00 0.00 0.00 93 1012.1
20260505011549 10 198 17.7 22.5 0.00 0.00 0.00 93 1012.0
20260505011016 10 197 16.1 20.9 0.00 0.00 0.00 93 1012.1
20260505010515 10 199 14.5 19.3 0.00 0.00 0.00 92 1012.2
20260505010046 10 196 16.1 20.9 0.00 0.00 0.00 93 1012.1
20260505005515 10 180 16.1 20.9 0.00 0.00 0.00 93 1012.0
20260505005016 10 201 16.1 19.3 0.00 0.00 0.00 93 1011.9
20260505004541 10 202 16.1 19.3 0.00 0.00 0.00 93 1011.9
20260505004014 10 216 14.5 19.3 0.00 0.00 0.00 92 1012.0
20260505003518 10 221 16.1 19.3 0.00 0.00 0.00 92 1011.9
20260505003043 10 233 17.7 22.5 0.00 0.00 0.00 92 1011.7
20260505002518 10 219 16.1 22.5 0.00 0.00 0.00 92 1011.6
20260505002014 10 240 16.1 25.7 0.00 0.00 0.00 92 1011.5
20260505001551 10 210 17.7 25.7 0.00 0.00 0.00 92 1011.2
20260505001014 10 215 20.9 29.0 0.00 0.00 0.00 92 1010.9
20260505000516 10 210 22.5 30.6 0.00 0.00 0.00 91 1010.9
20260505000054 10 198 24.1 32.2 0.00 0.00 0.00 91 1010.8
20260504235516 10 200 25.7 32.2 0.00 0.00 0.00 91 1010.8
20260504235015 10 195 24.1 33.8 0.00 0.00 0.00 91 1010.8
20260504234541 10 202 25.7 33.8 0.00 0.00 0.00 91 1010.8
20260504234015 10 192 25.7 33.8 0.00 0.00 0.00 90 1010.9
20260504233515 10 182 27.4 33.8 0.00 0.00 0.00 90 1010.5
20260504233041 10 194 27.4 33.8 0.00 0.00 0.00 90 1010.6
20260504232514 10 180 27.4 30.6 0.00 0.00 0.00 89 1010.6
20260504232017 10 193 25.7 32.2 0.00 0.00 0.00 89 1010.7
20260504231556 11 191 25.7 33.8 0.00 0.00 0.00 89 1010.7
20260504231015 11 191 25.7 33.8 0.00 0.00 0.00 88 1010.8
20260504230515 11 196 24.1 32.2 0.00 0.00 0.00 88 1010.9
20260504230041 11 197 22.5 29.0 0.00 0.00 0.00 88 1010.9
20260504225518 11 200 20.9 29.0 0.00 0.00 0.00 88 1011.0
20260504225017 11 188 19.3 29.0 0.00 0.00 0.00 87 1011.1
20260504224542 11 196 22.5 29.0 0.00 0.00 0.00 87 1011.1
20260504224018 11 204 20.9 27.4 0.00 0.00 0.00 87 1011.2
20260504223519 11 193 20.9 25.7 0.00 0.00 0.00 87 1011.1
20260504223047 11 190 20.9 29.0 0.00 0.00 0.00 87 1011.0
20260504222515 11 188 22.5 29.0 0.00 0.00 0.00 87 1011.1
20260504222018 11 195 20.9 25.7 0.00 0.00 0.00 86 1011.1
20260504221553 11 195 20.9 29.0 0.00 0.00 0.00 86 1011.2
20260504221015 11 187 19.3 27.4 0.00 0.00 0.00 86 1011.1
20260504220517 11 184 20.9 29.0 0.00 0.00 0.00 86 1011.1
20260504220045 11 198 22.5 29.0 0.00 0.00 0.00 86 1011.1
20260504215517 11 194 22.5 32.2 0.00 0.00 0.00 86 1011.2
20260504215015 11 194 24.1 32.2 0.00 0.00 0.00 85 1011.1
20260504214544 11 191 22.5 32.2 0.00 0.00 0.00 86 1011.1
20260504214020 11 193 24.1 32.2 0.00 0.00 0.00 86 1011.1
20260504213514 11 200 25.7 33.8 0.00 0.00 0.00 86 1011.1
20260504213053 11 190 22.5 32.2 0.00 0.00 0.00 85 1011.0
20260504212517 11 186 25.7 35.4 0.00 0.00 0.00 86 1011.2
20260504212015 11 196 25.7 33.8 0.00 0.00 0.00 85 1011.2
20260504211547 11 199 25.7 33.8 0.00 0.00 0.00 85 1011.3
20260504211018 11 200 25.7 35.4 0.00 0.00 0.00 85 1011.2
20260504210517 11 188 29.0 35.4 0.00 0.00 0.00 85 1011.2
20260504210108 11 201 25.7 35.4 0.00 0.00 0.00 85 1011.1
20260504205516 11 212 27.4 35.4 0.00 0.00 0.00 85 1011.0
20260504205017 11 216 27.4 35.4 0.00 0.00 0.00 85 1011.1
20260504204559 11 203 27.4 38.6 0.00 0.00 0.00 85 1010.9
20260504204017 11 189 30.6 38.6 0.00 0.00 0.00 84 1010.9
20260504203521 11 195 29.0 37.0 0.00 0.00 0.00 84 1010.7
20260504203047 11 191 30.6 35.4 0.00 0.00 0.00 84 1010.8
20260504202516 11 189 29.0 37.0 0.00 0.00 0.00 84 1010.8
20260504202018 11 182 29.0 37.0 0.00 0.00 0.00 84 1010.9
20260504201547 11 192 29.0 37.0 0.00 0.00 0.00 84 1010.8
20260504201016 11 212 29.0 35.4 0.00 0.00 0.00 84 1011.2
20260504200517 11 197 29.0 35.4 0.00 0.00 0.00 84 1011.1
20260504200040 11 192 25.7 35.4 0.00 0.00 0.00 84 1011.1
20260504195515 11 189 27.4 35.4 0.00 0.00 0.00 84 1011.2
20260504195019 11 192 29.0 38.6 0.00 0.00 0.00 84 1011.1
20260504194603 11 195 30.6 38.6 0.00 0.00 0.00 83 1011.2
20260504194019 11 194 29.0 37.0 0.00 0.00 0.00 83 1011.2
20260504193518 11 196 27.4 35.4 0.00 0.00 0.00 83 1011.4
20260504193034 11 188 29.0 33.8 0.00 0.00 0.00 83 1011.3
20260504192519 11 183 29.0 35.4 0.00 0.00 0.00 83 1011.4
20260504192016 11 200 29.0 33.8 0.00 0.00 0.00 83 1011.3
20260504191550 11 200 27.4 37.0 0.00 0.00 0.00 83 1011.3
20260504191018 11 192 30.6 35.4 0.00 0.00 0.00 83 1011.3
20260504190520 11 202 29.0 35.4 0.00 0.00 0.00 83 1011.3
20260504185521 11 196 27.4 33.8 0.00 0.00 0.00 84 1011.4
20260504185015 11 213 25.7 33.8 0.00 0.00 0.00 84 1011.6
20260504184541 11 203 27.4 33.8 0.00 0.00 0.00 84 1011.6
20260504184016 11 200 27.4 35.4 0.00 0.00 0.00 84 1011.7
20260504183521 11 203 25.7 35.4 0.00 0.00 0.00 84 1011.8
20260504183037 11 202 27.4 35.4 0.00 0.00 0.00 84 1011.8
20260504182517 11 200 25.7 33.8 0.00 0.00 0.00 84 1012.0
20260504182015 11 203 25.7 32.2 0.00 0.00 0.00 84 1011.8
20260504181547 11 190 24.1 30.6 0.00 0.00 0.00 84 1012.2
20260504181021 11 222 20.9 30.6 0.00 0.00 0.00 85 1012.2
20260504180518 11 200 19.3 25.7 0.00 0.00 0.00 85 1012.4
20260504180110 11 209 20.9 27.4 0.00 0.00 0.00 85 1012.3
20260504175516 11 227 20.9 27.4 0.00 0.00 0.00 84 1012.3
20260504175017 11 225 20.9 29.0 0.00 0.00 0.00 84 1012.2
20260504174542 11 231 24.1 29.0 0.00 0.00 0.00 86 1012.4
20260504174017 11 230 19.3 27.4 0.00 0.00 0.00 86 1012.4
20260504173520 11 229 20.9 29.0 0.00 0.00 0.00 86 1012.5
20260504173058 11 224 22.5 27.4 0.00 0.00 0.00 87 1012.7
20260504172515 11 232 22.5 24.1 0.00 0.00 0.00 87 1012.6
20260504172016 11 227 19.3 24.1 0.00 0.00 0.00 88 1012.7
20260504171541 11 210 20.9 25.7 0.00 0.00 0.00 88 1012.7
20260504171020 11 217 20.9 27.4 0.00 0.00 0.00 88 1012.7
20260504170516 11 215 17.7 29.0 0.00 0.00 0.00 89 1012.9
20260504151016 10 226 20.9 24.1 0.00 0.00 0.00 86 1013.8
20260504150514 10 211 22.5 24.1 0.00 0.00 0.00 86 1013.8
20260504141020 10 225 17.7 25.7 0.00 0.00 0.00 85 1013.8
20260504140515 10 243 19.3 25.7 0.00 0.00 0.00 85 1013.9
20260504130516 10 225 22.5 29.0 0.00 0.00 0.00 86 1014.0
20260504110515 10 233 27.4 30.6 0.00 0.00 0.00 85 1013.7
20260504100517 9 235 25.7 30.6 0.00 0.00 0.00 86 1013.3
20260504081546 9 226 24.1 29.0 0.00 0.00 0.00 85 1012.8
20260504081014 9 244 24.1 29.0 0.00 0.00 0.00 85 1013.0
20260504080516 9 235 25.7 30.6 0.00 0.00 0.00 85 1012.7
20260504050519 8 246 17.7 19.3 0.00 0.00 0.00 89 1012.2
20260504050125 8 248 16.1 17.7 0.00 0.00 0.00 89 1012.3
20260504045515 8 233 16.1 19.3 0.00 0.00 0.00 88 1012.2
20260504045018 9 229 17.7 19.3 0.00 0.00 0.00 87 1012.2
20260504044551 9 232 17.7 22.5 0.00 0.00 0.00 87 1012.2
20260504044025 9 237 17.7 22.5 0.00 0.00 0.00 87 1012.2
20260504043517 9 245 14.5 19.3 0.00 0.00 0.00 87 1012.2
20260504043038 9 240 14.5 19.3 0.00 0.00 0.00 87 1012.2
20260504042511 9 219 14.5 20.9 0.00 0.00 0.00 88 1012.2
20260504042012 9 220 11.3 17.7 0.00 0.00 0.00 88 1012.2
20260504041538 9 219 12.9 17.7 0.00 0.00 0.00 87 1012.1
20260504041014 9 225 14.5 19.3 0.00 0.00 0.00 87 1012.0
20260504040513 9 223 17.7 19.3 0.00 0.00 0.00 86 1012.1
20260504040041 9 232 14.5 19.3 0.00 0.00 0.00 86 1012.0
20260504035514 9 242 12.9 17.7 0.00 0.00 0.00 84 1012.0
20260504035012 9 232 14.5 17.7 0.00 0.00 0.00 83 1011.9
20260504034547 9 236 16.1 19.3 0.00 0.00 0.00 83 1012.0
20260504034013 9 229 17.7 19.3 0.00 0.00 0.00 84 1011.9
20260504033521 9 229 16.1 17.7 0.00 0.00 0.00 85 1012.0
20260504033044 9 228 12.9 16.1 0.00 0.00 0.00 85 1012.0
20260504032516 9 209 11.3 16.1 0.00 0.00 0.00 83 1011.9
20260504032014 9 233 14.5 17.7 0.00 0.00 0.00 81 1011.9
20260504031558 9 229 16.1 16.1 0.00 0.00 0.00 80 1011.9
20260504031013 9 238 14.5 17.7 0.00 0.00 0.00 78 1012.0
20260504030510 9 252 14.5 16.1 0.00 0.00 0.00 76 1011.9
20260504030040 9 240 11.3 17.7 0.00 0.00 0.00 76 1011.9
20260504025512 9 235 11.3 17.7 0.00 0.00 0.00 76 1011.9
20260504025014 8 247 8.0 11.3 0.00 0.00 0.00 67 1012.0
20260504024542 9 253 8.0 11.3 0.00 0.00 0.00 74 1011.8
20260504024015 9 240 6.4 8.0 0.00 0.00 0.00 75 1011.9
20260504023514 9 248 6.4 9.7 0.00 0.00 0.00 77 1011.8
20260504023040 9 241 8.0 9.7 0.00 0.00 0.00 79 1011.8
20260504022516 9 232 8.0 9.7 0.00 0.00 0.00 83 1011.7
20260504022011 8 225 8.0 9.7 0.00 0.00 0.00 86 1011.8
20260504021538 8 211 6.4 9.7 0.00 0.00 0.00 86 1011.8
20260504021014 8 209 6.4 9.7 0.00 0.00 0.00 85 1011.8
20260504020512 9 200 6.4 9.7 0.00 0.00 0.00 83 1011.8
20260504020040 9 184 8.0 11.3 0.00 0.00 0.00 82 1011.8
20260504015514 9 184 8.0 12.9 0.00 0.00 0.00 80 1011.8
20260504015017 9 182 9.7 12.9 0.00 0.00 0.00 79 1011.7
20260504014537 9 171 12.9 14.5 0.00 0.00 0.00 77 1011.7
20260504014014 10 166 12.9 14.5 0.00 0.00 0.00 75 1011.6
20260504013513 10 168 11.3 14.5 0.00 0.00 0.00 73 1011.6
20260504013044 10 168 11.3 14.5 0.00 0.00 0.00 69 1011.5
20260504012515 10 156 11.3 14.5 0.00 0.00 0.00 69 1011.5